Location: Charlottesville
(38.0290°N, 78.4770°W)
Time: 11:09:09
(UTC-05:00)

Vanguard 1 Rocket - Visible Passes

Search period start: 15 December 2017 00:00
Search period end: 25 December 2017 00:00
Orbit: 656 x 4222 km, 34.3° (Epoch: 13 December)

Date Brightness Start Highest point End Pass type
(mag) Time Alt. Az. Time Alt. Az. Time Alt. Az.
15 Dec 9.4 17:28:56 10° WSW 17:38:17 71° SSE 17:57:07 10° E visible
15 Dec 9.9 19:53:44 10° W 20:07:23 75° S 20:14:29 52° ESE visible
15 Dec 10.6 22:20:28 10° W 22:31:47 44° WSW 22:31:47 44° WSW visible
16 Dec11.801:29:31S01:29:31S00:49:05Wvisible
16 Dec 9.6 18:42:47 10° W 18:54:00 77° S 19:07:28 27° ESE visible
16 Dec 10.2 21:08:27 10° W 21:24:12 63° SSW 21:24:46 62° SSW visible
16 Dec 11.3 23:37:11 10° W 00:21:41 - SSE 23:42:04 20° W visible
17 Dec 9.3 17:32:14 10° WSW 17:41:21 74° S 17:59:54 10° E visible
17 Dec 9.9 19:57:04 10° W 20:10:20 71° SSW 20:17:50 49° SE visible
17 Dec 10.7 22:23:56 10° W 22:35:09 40° WSW 22:35:09 40° WSW visible
18 Dec11.901:30:57S01:30:57S00:52:28Wvisible
18 Dec 9.6 18:46:08 10° W 18:57:05 75° S 19:11:00 25° ESE visible
18 Dec 10.3 21:11:48 10° W 21:26:58 56° SSW 21:28:19 55° SSW visible
18 Dec 11.4 23:41:20 10° W 00:22:54 - SSE 23:45:39 18° W visible
19 Dec 9.3 17:35:35 10° W 17:44:29 75° S 18:02:41 10° E visible
19 Dec 9.9 20:00:25 10° W 20:13:18 65° SSW 20:21:36 43° SE visible
19 Dec 10.8 22:27:34 10° W 22:38:57 35° SW 22:38:57 35° SW visible
20 Dec11.901:31:55S01:31:55S00:56:18Wvisible
20 Dec 9.6 18:49:30 10° W 19:00:10 72° S 19:15:02 22° ESE visible
20 Dec 10.4 21:15:16 10° W 21:29:46 48° SSW 21:32:23 47° S visible
20 Dec 11.5 23:46:12 10° W 00:23:36 - S 23:49:45 15° WSW visible
21 Dec 9.2 17:38:57 10° W 17:47:41 75° S 18:05:26 10° E visible
21 Dec 10.0 20:03:48 10° W 20:16:15 58° SSW 20:26:01 36° SE visible
21 Dec 11.0 22:31:33 10° W 22:43:23 30° SW 22:43:23 30° SW visible
22 Dec 9.6 18:52:54 10° W 19:03:16 66° SSW 19:19:52 17° ESE visible
22 Dec 10.6 21:18:53 10° W 21:32:35 40° SSW 21:37:15 37° S visible
22 Dec 11.6 23:52:33 10° WSW 00:23:34 - S 23:54:40 12° WSW visible
23 Dec 9.2 17:42:21 10° W 17:50:52 71° S 18:08:08 10° ESE visible
23 Dec 10.2 20:07:16 10° W 20:19:14 50° SSW 20:31:27 27° SSE visible
23 Dec 11.2 22:36:02 10° W 22:48:54 24° SW 22:48:54 24° SW visible
24 Dec 9.7 18:56:19 10° W 19:06:22 59° SSW 19:25:48 10° SE visible
24 Dec 10.8 21:22:44 10° W 21:35:28 33° SSW 21:43:36 26° S visible
